Content
SEND FEEDBACK

Daily
Averages
Monthly
Summary
United States of America

HEWITT, WISCONSIN


Home > North America > United States > Wisconsin
Elevation: 1250 feet     Latitude: 44 39N     Longitude: 090 07W

WEATHER
 
SELECT A DAY
Number of Records: 200,313;   Date Range: 7/1/96 - 9/18/14
 
SHARE

PRINT THIS DATA

[ ← Previous Day ]
WEATHER ALMANAC - AUGUST 7, 2014
[ Next Day → ]
[ °C ]   °F
Weather ElementAverageHighLow
Temperature69.7 °F80.1 °F (1:54 pm)57.9 °F (4:54 am)
Dewpoint57 °F62.1 °F (9:54 am)53.1 °F (4:54 pm)
Humidity66.6 %93 % (4:54 am)40 % (4:54 pm)
Barometer30.10 in30.13 in (6:54 am)30.06 in (6:54 pm)
Wind Speed6.3 mph10.4 mph (3:54 pm)
Weather ElementAverage
Visibility9.5 mi
Wind DirectionESE (103.9 °)

Weather ElementTotal
Precipitation---
Cooling Degree Days4 (Base 65)
Growing Degree Days19 (Base 50)
Averaged from 23 records on August 7, 2014
WEATHER CONDITIONS BREAKOUT
WIND DIRECTION BREAKOUT
WEATHER BY HOUR - AUGUST 7, 2014
[ °C ]   °F
Local TimeTemperatureDewpointHumidityBarometerVisibilityWind DirectionWind SpeedGust SpeedPrecipitationEventsConditions
1:54 AM64.0 °F57.0 °F78 %30.09 in10.0 miENE (70°)3.5 mphClear
2:54 AM61.0 °F57.0 °F87 %30.09 in10.0 miNE (50°)4.6 mphClear
3:54 AM60.1 °F57.0 °F90 %30.09 in10.0 miENE (60°)4.6 mphClear
4:54 AM57.9 °F55.9 °F93 %30.09 in9.0 miENE (70°)3.5 mphClear
5:54 AM57.9 °F55.9 °F93 %30.11 in7.0 miEast (100°)3.5 mphClear
6:54 AM60.1 °F57.0 °F90 %30.13 in6.0 miEast (90°)4.6 mphClear
7:54 AM63.0 °F59.0 °F87 %30.13 in7.0 miEast (100°)5.8 mphPartly Cloudy
8:54 AM68.0 °F61.0 °F78 %30.13 in9.0 miEast (90°)6.9 mphClear
9:54 AM73.0 °F62.1 °F68 %30.13 in10.0 miEast (100°)5.8 mphClear
10:54 AM75.0 °F62.1 °F64 %30.13 in10.0 miSE (140°)6.9 mphClear
11:54 AM75.9 °F60.1 °F58 %30.12 in10.0 miEast (100°)9.2 mphScattered Clouds
12:54 PM78.1 °F60.1 °F54 %30.11 in10.0 miSE (130°)6.9 mphScattered Clouds
1:54 PM80.1 °F57.0 °F45 %30.10 in10.0 miVariable5.8 mphMostly Cloudy
2:54 PM79.0 °F57.0 °F47 %30.09 in10.0 miSSE (160°)8.1 mphPartly Cloudy
3:54 PM80.1 °F55.0 °F42 %30.08 in10.0 miSE (130°)10.4 mphPartly Cloudy
4:54 PM79.0 °F53.1 °F40 %30.07 in10.0 miSSE (150°)6.9 mphClear
5:54 PM79.0 °F53.1 °F40 %30.07 in10.0 miEast (100°)10.4 mphClear
6:54 PM77.0 °F55.9 °F48 %30.06 in10.0 miESE (120°)9.2 mphClear
7:54 PM72.0 °F55.9 °F57 %30.06 in10.0 miSE (130°)6.9 mphClear
8:54 PM69.1 °F55.0 °F61 %30.07 in10.0 miESE (110°)4.6 mphClear
9:54 PM66.9 °F55.0 °F66 %30.08 in10.0 miESE (120°)4.6 mphClear
10:54 PM64.0 °F55.0 °F73 %30.09 in10.0 miSE (130°)6.9 mphClear
11:54 PM64.0 °F55.0 °F73 %30.09 in10.0 miSE (140°)5.8 mphClear
Hourly data recorded from KMFI, located miles away from Hewitt, Wisconsin







STORIES FROM OUR PARTNERS